[Iaude] MPEC V105: 2023 VD3 [a=1.36,e=0.56,i=11.8,H=27.1]
    mpec at marsden.cfa.harvard.edu 
    mpec at marsden.cfa.harvard.edu
       
    Tue Nov  7 20:56:55 EST 2023
    
    
  
M.P.E.C. 2023-V105                             Issued 2023 November 8, 01:55 UT
     The Minor Planet Electronic Circulars contain information on unusual
         minor planets, routine data on comets and natural satellites,
         and occasional editorial announcements.  They are published
    on behalf of Division F of the International Astronomical Union by the
          Minor Planet Center, Smithsonian Astrophysical Observatory,
                          Cambridge, MA 02138, U.S.A.
			  
             Prepared using the Tamkin Foundation Computer Network
                              MPC at CFA.HARVARD.EDU
            URL https://www.minorplanetcenter.net/    ISSN 1523-6714
                                    2023 VD3                                    
Observations:
     K23V03D 1C2023 11 07.39363504 27 43.580+00 55 15.20         19.20GVEV105703
     K23V03D*1C2023 11 07.40073304 27 58.295+00 55 45.59         18.59GVEV105G96
     K23V03D 1C2023 11 07.40424204 28 05.670+00 56 00.80               VEV105703
     K23V03D 1C2023 11 07.40590704 28 09.124+00 56 08.34         18.67GVEV105G96
     K23V03D 1C2023 11 07.40956004 28 16.750+00 56 24.10               VEV105703
     K23V03D 1C2023 11 07.41108104 28 19.981+00 56 31.31         18.79GVEV105G96
     K23V03D mC2023 11 07.45003204 29 45.218+00 59 29.40         18.73GVEV105I52
     K23V03D mC2023 11 07.45022504 29 45.658+00 59 30.05         18.93GVEV105I52
     K23V03D mC2023 11 07.45041804 29 46.100+00 59 31.16         18.78GVEV105I52
     K23V03D mC2023 11 07.45061304 29 46.540+00 59 31.92         18.72GVEV105I52
     K23V03D mC2023 11 07.45334304 29 52.717+00 59 44.70         18.23GVEV105I52
     K23V03D mC2023 11 07.45353604 29 53.182+00 59 45.85         18.48GVEV105I52
     K23V03D mC2023 11 07.45372904 29 53.614+00 59 46.72         18.56GVEV105I52
     K23V03D mC2023 11 07.45392304 29 54.053+00 59 47.69         18.57GVEV105I52
     K23V03D KC2023 11 07.49920904 31 41.588+01 03 28.19         18.51GVEV105I52
     K23V03D KC2023 11 07.49979004 31 43.014+01 03 30.92         18.68GVEV105I52
     K23V03D KC2023 11 07.50037104 31 44.450+01 03 34.02         18.80GVEV105I52
     K23V03D KC2023 11 07.50096304 31 45.930+01 03 36.76         18.89GVEV105I52
     K23V03D KC2023 11 07.50146504 31 47.165+01 03 39.53         18.69GVEV105I52
     K23V03D KC2023 11 07.50185404 31 48.144+01 03 41.26         18.68GVEV105I52
     K23V03D KC2023 11 07.50224104 31 49.120+01 03 43.34         18.70GVEV105I52
     K23V03D KC2023 11 07.50262704 31 50.059+01 03 45.29         18.61GVEV105I52
     K23V03D  C2023 11 07.61425 04 38 02.61 +01 13 48.0          18.7 RmEV105P93
     K23V03D  C2023 11 07.61626 04 38 08.61 +01 14 00.1          18.6 RmEV105P93
     K23V03D  C2023 11 07.61807 04 38 14.03 +01 14 11.1          18.5 RmEV105P93
     K23V03D  C2023 11 07.62168 04 38 24.92 +01 14 33.3          18.8 RmEV105P93
     K23V03D  C2023 11 07.62348 04 38 30.35 +01 14 44.6          18.6 RmEV105P93
     K23V03D  C2023 11 07.68496904 42 02.785+01 21 26.43         18.6 GVEV105O85
     K23V03D  C2023 11 07.68750404 42 11.341+01 21 43.54         18.3 GVEV105O85
     K23V03D  C2023 11 07.69003804 42 19.947+01 22 01.33         19.0 GVEV105O85
     K23V03D  C2023 11 07.69257004 42 28.610+01 22 18.62         18.6 GVEV105O85
     K23V03D  C2023 11 07.69763404 42 45.995+01 22 54.18         18.9 GVEV105O85
     K23V03D 1C2023 11 07.84487 04 53 17.95 +01 40 13.9          18.7 GVEV105C40
     K23V03D 1C2023 11 07.84782 04 53 31.77 +01 40 41.0          19.0 GVEV105C40
     K23V03D 1C2023 11 07.85076 04 53 45.63 +01 41 07.0          18.8 GVEV105C40
     K23V03D 1C2023 11 07.85948 04 54 27.16 +01 42 27.5          18.7 GVEV105C40
     K23V03D 1C2023 11 07.86243 04 54 41.41 +01 42 54.4          18.4 GVEV105C40
     K23V03D 1C2023 11 07.86536 04 54 55.62 +01 43 22.4          18.4 GVEV105C40
     K23V03D KB2023 11 07.92824605 00 37.49 +01 53 34.3          17.8 GXEV105595
     K23V03D KC2023 11 07.92980805 00 49.01 +01 53 54.7          18.4 GVEV105203
     K23V03D KB2023 11 07.93087105 00 52.14 +01 54 02.7          18.2 GXEV105595
     K23V03D KB2023 11 07.93348905 01 06.83 +01 54 31.3          18.2 GXEV105595
     K23V03D KC2023 11 07.93459205 01 15.98 +01 54 46.1          17.8 GVEV105203
     K23V03D KC2023 11 07.94021705 01 47.94 +01 55 47.5          18.0 GVEV105203
     K23V03D KC2023 11 07.95196405 02 55.51 +01 58 16.6                VEV105104
     K23V03D KC2023 11 07.95393305 03 07.08 +01 58 38.7          17.1 GVEV105104
     K23V03D KC2023 11 07.95479 05 03 10.94 +01 58 47.0          17.4 GVEV105M29
     K23V03D KC2023 11 07.95590105 03 18.58 +01 59 00.4          17.0 GVEV105104
     K23V03D KC2023 11 07.95680 05 03 22.80 +01 59 09.8          17.5 GVEV105M29
Observer details:
104 San Marcello Pistoiese.  Observers P. Bacci, M. Maestripieri.  Measurers
    P. Bacci, L. Tesi, G. Fagioli.  0.60-m F4 Reflector + CCD.
203 GiaGa Observatory.  Observers S. Foglia, G. Galli.  Measurer G. Galli.
    0.36-m f/5.76 Schmidt-Cassegrain + CCD.
595 Farra d'Isonzo.  Observer E. Pettarin.  0.40-m f/3.3 reflector + CMO.
703 Catalina Sky Survey.  Observer G. J. Leonard.  Measurers E. C. Beshore, D.
    Fay, J. B. Fazekas, D. C. Fuls, A. R. Gibbs, A. D. Grauer, H. Groeller, J.
    K. Hogan, R. A. Kowalski, S. M. Larson, G. J. Leonard, D. Rankin, R. L.
    Seaman, F. C. Shelly, K. W. Wierzchos.  0.68-m Schmidt + 10K CCD.
C40 Kuban State University Astrophysical Observatory.  Observers A. Ivanov, A.
    Barcov, V. Ivanov, V. Lysenko, N. Yakovenko, N. Ivanova, N. Gorbunov, G.
    Kurbatov, P. Shchukin, V. Roshchupko.  Measurer A. Ivanov.  0.51-m f/8
    reflector + CCD.
G96 Mt. Lemmon Survey.  Observer D. Rankin.  Measurers E. C. Beshore, D. Fay,
    J. B. Fazekas, D. C. Fuls, A. R. Gibbs, A. D. Grauer, H. Groeller, J. K.
    Hogan, R. A. Kowalski, S. M. Larson, G. J. Leonard, D. Rankin, R. L.
    Seaman, F. C. Shelly, K. W. Wierzchos.  1.5-m reflector + 10K CCD.
I52 Steward Observatory, Mt. Lemmon Station.  Observer H. Groeller.  Measurers
    E. C. Beshore, D. Fay, J. B. Fazekas, D. C. Fuls, A. R. Gibbs, A. D.
    Grauer, H. Groeller, J. K. Hogan, R. A. Kowalski, S. M. Larson, G. J.
    Leonard, D. Rankin, R. L. Seaman, F. C. Shelly, K. W. Wierzchos.  1.0-m
    prime focus + CCD.
M29 O.M.Ni.A. Observatory, Cesena.  Observers V. Tinella, A. De Pieri.  0.40-m
    f/8 reflector + CCD.
O85 LiShan Observatory, Lintong.  Observers Y. Yu, K. Tang, A. Pomazan.
    0.50-m f/7.0 Cassegrain + CCD.
P93 Space Tracking and Communications Center, JAXA.  Observers S. Urakawa, S.
    Okumura, O. Hashimoto.  1.0-m f/3.0 reflector + CCD.
Orbital elements:
2023 VD3                                                 Earth MOID = 0.0006 AU
Epoch 2023 Sept. 13.0 TT = JDT 2460200.5                Veres                   
M 292.13458              (2000.0)            P               Q                  
n   0.61884628     Peri.   95.28413     -0.76544995     -0.62646395             
a   1.3637901      Node    46.02889     +0.47916063     -0.70743726             
e   0.5585597      Incl.   11.79148     +0.42952470     -0.32722383             
P   1.59           H   27.12          G   0.15           U   7                  
Residuals in seconds of arc
231107 703  0.7+  0.4+    231107 I52  0.2-  0.2-    231107 C40  0.6+  0.1-
231107 G96  0.3+  0.0     231107 I52  0.4-  0.0     231107 C40  0.4+  0.1+
231107 703  1.5+  0.4-    231107 I52  0.3-  0.2-    231107 C40  1.0+  0.5-
231107 G96  0.4+  0.0     231107 I52  0.1-  0.1-    231107 C40  1.4+  0.1+
231107 703  0.1-  0.7-    231107 I52  0.4-  0.1-    231107 595  0.8-  0.7-
231107 G96  0.4-  0.0     231107 P93  0.8-  0.2-    231107 203 (1.8-  0.4-)
231107 I52  0.1-  0.1+    231107 P93  0.9-  0.4-    231107 595  0.9-  0.3-
231107 I52  0.1-  0.2-    231107 P93  1.0-  0.5-    231107 595  0.9-  0.2+
231107 I52  0.0   0.0     231107 P93  0.7-  0.5-    231107 203 (1.1-  0.3-)
231107 I52  0.0   0.1-    231107 P93  0.8-  0.3-    231107 203 (1.5-  0.0 )
231107 I52  0.3-  0.2-    231107 O85  0.6-  0.0     231107 104  0.2-  0.2+
231107 I52  0.1+  0.0     231107 O85  1.0-  0.3-    231107 104  0.4+  0.2+
231107 I52  0.0   0.0     231107 O85  1.0-  0.0     231107 M29  1.3-  0.5-
231107 I52  0.1-  0.0     231107 O85  0.7-  0.3-    231107 104  0.6-  0.3-
231107 I52  0.0   0.0     231107 O85  0.6-  0.0     231107 M29  0.8-  0.3-
231107 I52  0.3-  0.2-    231107 C40  0.9+  0.4+
231107 I52  0.4-  0.0     231107 C40  0.6+  0.7+
Ephemeris:
2023 VD3                 a,e,i = 1.36, 0.56, 12                  q = 0.6020
Date    TT    R. A. (2000) Decl.     Delta      r    Elong.  Phase     V
2023 10 09    03 28 14.7 +00 25 58   0.3351  1.2786   141.5    29.1    26.6
...
2023 10 24    03 37 17.9 -00 13 38   0.1653  1.1426   151.3    24.7    24.6
...
2023 11 01    03 43 46.0 -00 21 33   0.08035 1.0662   155.2    23.0    22.9
...
2023 11 07    04 16 07.6 +00 37 01   0.01827 1.0075   153.0    26.6    19.6
2023 11 08    05 07 28.3 +02 19 16   0.0083090.9977   143.4    36.3    18.2
2023 11 09    12 14 35.6 +06 25 34   0.0042500.9878    45.7   134.2    21.4
...
2023 11 15    15 24 46.3 +01 01 14   0.06496 0.9283    19.4   159.3    31.8
...
2023 11 23    15 31 06.6 +00 17 13   0.1500  0.8494    21.1   155.3    32.2
...
2023 12 08    15 37 29.7 -02 22 26   0.3281  0.7117    27.8   139.8    30.8
M. P. C. Staff               (C) Copyright 2023 MPC           M.P.E.C. 2023-V105
    
    
More information about the Iaude
mailing list